{"data":{"norad_id":53857,"intl_designator":"2022-114AR","name":"STARLINK-4809","alt_names":[],"object_type":"PAYLOAD","status":"ACTIVE","operator":null,"country":"US","launch_date":"2022-09-19","launch_site_code":"AFETR","launch_vehicle":null,"mission":null,"orbit_class":"UNKNOWN","rcs_meters":null,"size_class":null,"mass_kg":null,"dimensions":null,"purposes":["comms"],"wikipedia_slug":null,"has_3d_model":false,"image_url":null,"decayed_at":null,"tle_current":{"epoch":"2026-05-25T04:06:02.442240Z","epoch_age_seconds":61126,"freshness":"FRESH","line1":"1 53857U 22114AR  26145.17086160  .00003618  00000+0  24542-3 0  9992","line2":"2 53857  53.2139 310.3613 0001443  92.4803 267.6354 15.08823993204522","mean_motion":15.08823993,"eccentricity":0.0001443,"inclination_deg":53.2139,"raan_deg":310.3613,"arg_perigee_deg":92.4803,"mean_anomaly_deg":267.6354,"bstar":0.00024542,"rev_number":20452,"period_min":95.438567167589,"perigee_km":538.7940591916,"apogee_km":540.79057359231,"semimajor_km":6917.929316392,"source":"CELESTRAK","updated_at":"2026-05-25T13:38:17.577925Z"}}}